North Platte, NE

6:32 PM CDT on June 25, 2017 (GMT -0500)
North Platte Regional-Bird

Weather History for KLBF - October, 2013

Change the Weather History Date:

Thursday, October 24, 2013

  Actual Average Record
Temperature  
Mean Temperature 43 °F 46 °F  
Max Temperature 47 °F 61 °F 86 °F (1940)
Min Temperature 38 °F 31 °F 9 °F (1887)
Degree Days  
Heating Degree Days 22 19  
Month to date heating degree days 380 353  
Since 1 July heating degree days 463 524  
Cooling Degree Days 0 0  
Month to date cooling degree days 0 0  
Year to date cooling degree days 998 765  
Moisture  
Dew Point 35 °F    
Average Humidity 72    
Maximum Humidity 79    
Minimum Humidity 65    
Precipitation  
Precipitation 0.00 in 0.04 in 0.72 in (1997)
Month to date precipitation 1.60 1.27  
Year to date precipitation 21.04 18.90  
Snow  
Snow 0.00 in 0.10 in 3.20 in (1997)
Month to date snowfall 0.0 1.4  
Since 1 July snowfall 0.0 1.6  
Since 1 September snowfall 0.0 1.6  
Snow Depth 0.00 in    
Sea Level Pressure  
Sea Level Pressure 30.34 in    
Wind  
Wind Speed 7 mph (SE)    
Max Wind Speed 15 mph    
Max Gust Speed 20 mph    
Visibility 10 miles    
Events      
T = Trace of Precipitation, MM = Missing Value Source: NWS Daily Summary

Daily Weather History Graph

Daily Weather History Graph

Search for Another Location

Airport or City:

Trip Planner

Search our weather history database for the weather conditions in past years. The results will help you decide how hot, cold, wet, or windy it might be!

Date:

Astronomy

Oct. 24, 2013 Rise Set
Actual Time 8:04 AM CDT 6:48 PM CDT
Civil Twilight 7:36 AM CDT 7:16 PM CDT
Nautical Twilight 7:04 AM CDT 7:48 PM CDT
Astronomical Twilight 6:32 AM CDT 8:20 PM CDT
Moon 11:13 PM CDT (10/24) 1:08 PM CDT (10/24)
Length of Visible Light 11h 39m
Length of Day
10h 43m
Waning Gibbous, 71% of the Moon is Illuminated
Oct 24
Waning Gibbous
Oct 26
Last Quarter
Nov 3
New
Nov 9
First Quarter
Nov 17
Full

Hourly Weather History & Observations

Time (CDT) Temp. Windchill Dew Point Humidity Pressure Visibility Wind Dir Wind Speed Gust Speed Precip Events Conditions
12:53 AM 44.1 °F 40.8 °F 37.0 °F 76% 30.25 in 10.0 mi NE 5.8 mph - N/A   Overcast
1:53 AM 44.1 °F 39.5 °F 35.1 °F 71% 30.26 in 10.0 mi North 8.1 mph - N/A   Overcast
2:53 AM 43.0 °F 38.8 °F 33.1 °F 68% 30.27 in 10.0 mi NNE 6.9 mph - N/A   Overcast
3:53 AM 42.1 °F 37.1 °F 33.1 °F 70% 30.29 in 10.0 mi NNE 8.1 mph - N/A   Overcast
4:53 AM 42.1 °F 40.2 °F 33.1 °F 70% 30.30 in 10.0 mi NNE 3.5 mph - N/A   Overcast
5:53 AM 41.0 °F 37.1 °F 34.0 °F 76% 30.31 in 10.0 mi NE 5.8 mph - N/A   Overcast
6:53 AM 39.9 °F 35.8 °F 34.0 °F 79% 30.34 in 10.0 mi East 5.8 mph - N/A   Overcast
7:53 AM 39.0 °F 33.4 °F 33.1 °F 79% 30.36 in 10.0 mi East 8.1 mph - N/A   Overcast
8:53 AM 39.0 °F 34.8 °F 33.1 °F 79% 30.38 in 10.0 mi East 5.8 mph - N/A   Overcast
9:53 AM 39.9 °F 37.8 °F 32.0 °F 73% 30.40 in 10.0 mi ESE 3.5 mph - N/A   Overcast
10:53 AM 39.9 °F 36.7 °F 33.1 °F 77% 30.41 in 10.0 mi SE 4.6 mph - N/A   Overcast
11:53 AM 41.0 °F 37.1 °F 33.1 °F 73% 30.41 in 10.0 mi South 5.8 mph - N/A   Overcast
12:53 PM 43.0 °F 41.3 °F 34.0 °F 71% 30.40 in 10.0 mi ESE 3.5 mph - N/A   Overcast
1:53 PM 44.1 °F 40.1 °F 35.1 °F 71% 30.38 in 10.0 mi South 6.9 mph - N/A   Overcast
2:53 PM 46.0 °F 41.9 °F 35.1 °F 66% 30.35 in 10.0 mi South 8.1 mph - N/A   Overcast
3:53 PM 46.0 °F 41.9 °F 37.0 °F 71% 30.34 in 10.0 mi South 8.1 mph - N/A   Overcast
4:53 PM 46.9 °F - 37.0 °F 68% 30.32 in 10.0 mi South 6.9 mph - N/A   Overcast
5:12 PM 46.4 °F 43.5 °F 37.4 °F 71% 30.30 in 10.0 mi South 5.8 mph - N/A   Overcast
5:45 PM 46.4 °F 42.9 °F 37.4 °F 71% 30.30 in 10.0 mi SSE 6.9 mph - N/A   Overcast
5:53 PM 46.9 °F - 37.0 °F 68% 30.33 in 10.0 mi SSE 5.8 mph - N/A   Overcast
6:32 PM 46.4 °F 43.5 °F 37.4 °F 71% 30.30 in 10.0 mi South 5.8 mph - N/A   Overcast
6:53 PM 46.0 °F 43.9 °F 37.0 °F 71% 30.33 in 10.0 mi South 4.6 mph - N/A   Overcast
7:53 PM 44.1 °F 40.8 °F 37.0 °F 76% 30.34 in 10.0 mi SSE 5.8 mph - N/A   Overcast
8:53 PM 43.0 °F 38.2 °F 36.0 °F 76% 30.34 in 10.0 mi South 8.1 mph - N/A   Clear
9:53 PM 42.1 °F 37.7 °F 35.1 °F 76% 30.35 in 10.0 mi South 6.9 mph - N/A   Clear
10:53 PM 41.0 °F 35.2 °F 35.1 °F 79% 30.35 in 10.0 mi South 9.2 mph - N/A   Clear
11:53 PM 39.9 °F 32.9 °F 34.0 °F 79% 30.36 in 10.0 mi South 11.5 mph - N/A   Clear